Location: D�derode
(51.8092°N, 10.1065°E)
Time: 06:55:07
(UTC+00:00)

Cosmos 1933 Rocket - Pass Details

Date: 01 December 2020
Orbit: 605 x 631 km, 82.5° (Epoch: 24 January)

Event Time Altitude Azimuth Distance (km) Brightness Sun altitude
Rises 17:35:09 0° 346° (NNW) 2,939 7.1 -21.1°
Reaches altitude 10° 17:37:26 10° 341° (NNW) 2,026 6.3 -21.4°
Maximum altitude 17:41:48 54° 265° (W) 773 4.3 -22.1°
Drops below altitude 10° 17:46:09 10° 189° (S) 2,004 6.3 -22.7°
Sets 17:48:24 0° 184° (S) 2,904 7.1 -23.1°
